Showing default

EXCITE, 43819

Orbit data source: Space-Track

EXCITE, 43819 is a payload satellite owned by DARPA (US) in SSO that was launched on Mon, 03 Dec 2018 UTC via an FALCON 9 launch vehicle from the Air Force Western Test Range (AFWTR). Payload-class satellites include a variety of spacecraft equipped with specific instruments for various scientific and technological missions. These include communications satellites like Starlink; space stations such as the ISS; scientific satellites like the Hubble; Earth observation satellites from companies like Planet Labs, Umbra, and HawkEye 360; GPS; miniature CubeSats for education and research; and military/defense satellites.

Loading next visibility...
Identifier
43819, 2018-099BP
Orbit
SSO
Country
Flag of USUS
Related business
Manufacturer
NovaWurks
Mission
Operational Defense Technology
Bus & Motor
HISAT, Unknown motor
Mass
~155 kg wet, ~155 kg dry
Launch date (UTC)
2018-12-03 (7 years ago)
Launch vehicle
FALCON 9
Launch site
Air Force Western Test Range (AFWTR)
Object type
Payload
Rocket body
Debris
Shape & HBR
Box, 0.5 m
Radar Cross Section
1.500 m², Medium (>0.1 m² and < 1m²)

Expand to show TLE details & history
Last TLE update: 8 hours ago

TLE from 8 hours ago
0 EXCITE
1 43819U 18099BP  26125.03493821  .00002100  00000-0  14630-3 0  9998
2 43819  97.4004 165.5054 0019810 135.3072 224.9756 15.06317373405254
Epoch: 2026-05-05T00:50Z
TLE epoch observation values (Epoch: 2026-05-05T00:50:18.661Z)
Latitude
-0.00006°
Longitude
-69.98792°
Altitude
560.258 km
Speed
7.576 km/s
True Right ascension
11h 02m 01s
True Declination
0° 00' 00"
Sunlit
Object was in full shadow at epoch
Visualization orbit readout
Latitude
Unknown
Longitude
Unknown
Altitude
Unknown
Speed
Unknown
Apparent Right ascension
Unknown
Apparent Declination
Unknown
Sunlit
N/A
Visualization observer readout
Local Sidereal Time
16:36:38
Azimuth
Unknown
Elevation
Unknown
Doppler factor
Unknown
Orbital elements
Apogee altitude
558.162 km
Perigee altitude
530.735 km
Semi-major axis
6,922.586 km
Eccentricity
0.00198
Inclination
97.4004°
RAAN
165.5054°
Arg. of periapsis
135.3072°
True anomaly
224.81543°
Mean anomaly
224.9756°
Eccentric anomaly
224.89549°
Mean motion
3.76826 °/min
Orbital period
95.53 mins
BSTAR
0.0001463
Loading maneuver chart data...
Computing Atmospheric mass density...
Loading historical data...
Loading historical data...
Loading historical data...
Loading historical data...
Loading historical data...
Loading historical data...
Loading historical data...

Documentation

Showing up to 5 results
|